This is the latest recevied weather packets stored in our database for station/object N2XP-3. If no packets are shown the sender has not sent any weather packets the latest 10 day(s).
| Time | Temp. | Humidity | Pressure | Rain* | Wind** | Luminosity | Snow |
|---|---|---|---|---|---|---|---|
| 1777784273 | 7.78° C | 58% | 1008.7 hPa | 0 mm | 1.34 m/s, 191° | - | - |
| 1777784043 | 7.78° C | 59% | 1008.7 hPa | 0 mm | 1.79 m/s, 77° | - | - |
| 1777783974 | 7.78° C | 59% | 1008.7 hPa | 0 mm | 1.79 m/s, 77° | - | - |
| 1777783730 | 8.33° C | 58% | 1008.7 hPa | 0 mm | 0 m/s | - | - |
| 1777783670 | 8.33° C | 58% | 1008.7 hPa | 0 mm | 0 m/s | - | - |
| 1777783370 | 7.78° C | 58% | 1008.8 hPa | 0 mm | 0 m/s | - | - |
| 1777783071 | 8.33° C | 58% | 1008.8 hPa | 0 mm | 0.89 m/s, 108° | - | - |
| 1777782468 | 8.33° C | 57% | 1008.9 hPa | 0 mm | 0.89 m/s, 195° | - | - |
| 1777782165 | 8.33° C | 57% | 1008.9 hPa | 0 mm | 1.79 m/s, 121° | - | - |
| 1777781949 | 8.33° C | 57% | 1009.1 hPa | 0 mm | 0.45 m/s, 108° | - | - |
| 1777781860 | 8.33° C | 57% | 1009.1 hPa | 0 mm | 0.45 m/s, 108° | - | - |
| 1777781561 | 8.33° C | 57% | 1009.1 hPa | 0 mm | 1.34 m/s, 73° | - | - |
| 1777780955 | 8.33° C | 57% | 1009.2 hPa | 0 mm | 1.34 m/s, 152° | - | - |
| 1777780655 | 8.33° C | 57% | 1009.1 hPa | 0 mm | 1.34 m/s, 194° | - | - |
| 1777780355 | 8.33° C | 57% | 1009.1 hPa | 0 mm | 0.89 m/s, 222° | - | - |
| 1777779754 | 8.33° C | 57% | 1009.2 hPa | 0 mm | 1.79 m/s, 194° | - | - |
| 1777779524 | 8.33° C | 57% | 1009.2 hPa | 0 mm | 0 m/s | - | - |
| 1777779454 | 8.33° C | 57% | 1009.2 hPa | 0 mm | 0 m/s | - | - |
| 1777779143 | 8.33° C | 57% | 1009.1 hPa | 0 mm | 1.79 m/s, 31° | - | - |
| 1777778844 | 8.33° C | 57% | 1009.2 hPa | 0 mm | 1.79 m/s, 51° | - | - |
| 1777778544 | 8.33° C | 57% | 1009.2 hPa | 0 mm | 0.45 m/s, 44° | - | - |
| 1777778241 | 8.33° C | 58% | 1009.2 hPa | 0 mm | 1.34 m/s, 104° | - | - |
| 1777777938 | 8.33° C | 58% | 1009.2 hPa | 0 mm | 0.45 m/s, 63° | - | - |
| 1777777639 | 8.33° C | 58% | 1009.3 hPa | 0 mm | 0 m/s | - | - |
| 1777777408 | 8.33° C | 59% | 1009.2 hPa | 0 mm | 0 m/s | - | - |
* Rain latest hour (hover to see other rain measurements)
** Current wind speed in m/s (hover to see current wind gust speed)